[[{"header":{"parameterUnit":"m.s-1","parameterCategory":1,"la1":30.2991,"la2":30.254,"lo1":-89.0895,"lo2":-89.0444,"dy":0.0017,"dx":0.0017,"nx":28,"ny":28,"refTime":"2024-06-28T21:00:00:Z","depth":0,"parameterNumber":2,"parameterNumberName":"U-component_of_WINDS"},"data":[0,0,0,0,0,0,0,0,0,0,0,0,0,0,0,0,0,0,0,0,0,0,0,0,0,0,0,0,0,0,0,0,0,0,0,0,0,0,0,0,0,0,0,0,0,0,0,0,0,0,0,0,0,0,0,0,0,0,2.1113,2.1113,0,2.1151,2.1151,2.1152,2.1095,2.1093,2.1091,2.1089,2.1128,2.1131,2.1133,0,0,0,0,0,0,0,0,0,0,0,0,0,2.0989,2.0992,2.1113,2.1113,2.1114,2.1151,2.1151,2.1152,2.1096,2.1093,2.1091,2.1088,2.1127,2.113,2.1134,0,0,0,0,0,0,0,0,0,0,0,0,0,2.1037,2.0993,2.1113,2.109,2.1088,2.1151,2.1151,2.1152,2.1096,2.1093,2.109,2.1087,2.1126,2.113,2.1134,2.122,0,0,2.1147,2.1149,0,0,0,0,0,0,0,0,2.1034,2.1041,2.1093,2.1092,2.109,2.1115,2.1122,2.1175,2.1097,2.1093,2.1089,2.1086,2.1126,2.113,2.1144,2.1222,2.1223,2.1148,2.115,2.1152,2.1153,0,0,0,0,0,0,0,2.1031,2.1039,2.1128,2.1094,2.1092,2.1077,2.1081,2.1132,2.1126,2.1093,2.1089,2.1095,2.1125,2.114,2.1144,2.1224,2.1147,2.1151,2.1154,2.1156,2.1372,2.1375,0,0,0,0,0,0,2.103,2.1037,2.1126,2.1129,2.1054,2.1082,2.1086,2.111,2.1125,2.1124,2.1097,2.1092,2.1134,2.1139,2.1145,2.1245,2.1152,2.1156,2.1159,2.1369,2.1373,2.1376,0,0,0,0,0,0,2.1028,2.1039,2.1125,2.1082,2.1092,2.1087,2.1115,2.1112,2.1127,2.1128,2.1126,2.1114,2.1132,2.1139,2.1201,2.1245,2.1158,2.1162,2.1365,2.137,2.1375,2.1446,0,0,0,0,0,0,2.1025,2.1038,2.1072,2.1083,2.1094,2.1181,2.1118,2.1115,2.1135,2.1129,2.1143,2.1143,2.113,2.1195,2.1206,2.125,2.1165,2.1361,2.1367,2.1373,2.144,2.1453,2.1464,0,0,0,0,0,2.1021,2.109,2.1073,2.1085,2.1135,2.1184,2.119,2.1174,2.1139,2.1171,2.1172,2.1142,2.1239,2.1202,2.1213,2.1259,2.1358,2.1366,2.1373,2.1434,2.145,2.1464,0,0,0,0,0,0,2.1084,2.1092,2.1073,2.1149,2.1166,2.1174,2.1215,2.1192,2.1219,2.1212,2.1191,2.1195,2.1261,2.1267,2.1225,2.1342,2.1293,2.1303,2.1336,2.1351,2.1363,2.1359,2.1169,0,0,0,0,0,2.1107,2.1146,2.115,2.1217,2.1227,2.122,2.124,2.1226,2.1243,2.125,2.1255,2.1272,2.1306,2.1329,2.1361,2.1441,2.1442,2.1478,2.149,2.15,2.1508,2.1548,2.1564,2.14,2.14,2.1399,0,0,2.1155,2.1164,2.119,2.123,2.1242,2.1282,2.1226,2.1271,2.13,2.1257,2.1315,2.132,2.1337,2.1408,2.144,2.1415,2.1554,2.1509,2.1517,2.152,2.1557,2.1573,2.1587,2.1405,2.1404,2.1403,0,0,2.1261,2.1273,2.1329,2.1342,2.136,2.1355,2.1368,2.138,2.1381,2.1439,2.1407,2.1441,2.1501,2.1514,2.1529,2.164,2.1613,2.1651,2.1713,2.1753,2.1766,2.1777,2.1815,2.1829,2.166,2.166,2.166,0,2.1318,2.1378,2.136,2.1407,2.1425,2.1388,2.1443,2.1457,2.1485,2.1497,2.147,2.1543,2.1552,2.1625,2.1652,2.1666,2.1679,2.1649,2.1766,2.1777,2.1787,2.1823,2.1837,2.1664,2.1664,2.1663,2.1663,0,2.1445,2.1487,2.153,2.1557,2.158,2.1631,2.162,2.1646,2.163,2.1627,2.1686,2.1697,2.1729,2.1745,2.1731,2.1815,2.1799,2.1769,2.1719,2.1807,2.184,2.1854,2.167,2.1669,2.1667,2.1666,0,0,2.1592,2.1609,2.1625,2.1636,2.1654,2.1685,2.1734,2.1766,2.1787,2.1807,2.1846,2.1898,2.1869,2.1886,2.1873,2.1908,2.1993,2.1873,2.1873,2.1893,2.2084,2.2105,2.2121,2.1976,2.1978,2.198,2.2082,0,2.1697,2.1781,2.1767,2.1848,2.1885,2.1851,2.1893,2.1908,2.1907,2.1937,2.1936,2.1972,2.1933,2.1942,2.1976,2.1975,2.203,2.1968,2.201,2.2012,2.2005,2.2139,2.2161,2.2256,2.2095,2.2097,2.2098,0,2.183,2.1855,2.194,2.195,2.1965,2.2004,2.203,2.2061,2.2077,2.2073,2.2092,2.2071,2.2119,2.2069,2.2133,2.2091,2.2108,2.211,2.2113,2.2115,2.2059,2.2142,2.2287,2.23,2.2119,2.2117,2.2116,0,2.1926,2.1981,2.2039,2.205,2.2064,2.2091,2.2098,2.2111,2.213,2.2154,2.2166,2.2195,2.221,2.2233,2.222,2.2185,2.2286,2.2236,2.2283,2.2283,2.2304,2.2302,2.2451,2.2319,2.2318,2.2318,2.2318,0,2.2043,2.2096,2.2082,2.2117,2.2175,2.2158,2.2215,2.2218,2.2229,2.2264,2.2236,2.2269,2.2251,2.2283,2.2273,2.2327,2.2334,2.2332,2.2328,2.2333,2.2333,2.2342,2.2334,2.2322,2.2321,2.232,2.232,0,2.2159,2.2152,2.2212,2.222,2.2224,2.2266,2.2272,2.2305,2.2301,2.2345,2.2354,2.2349,2.2384,2.2374,2.2413,2.2406,2.2473,2.2462,2.2468,2.2464,2.2511,2.2506,2.2669,2.2689,2.2546,2.2547,2.2548,0,2.2234,2.2273,2.2286,2.2307,2.2316,2.235,2.237,2.2354,2.2375,2.2396,2.2425,2.2458,2.2483,2.254,2.2539,2.2568,2.2556,2.2612,2.256,2.2563,2.2555,2.2551,2.2554,2.2621,2.2623,2.2624,2.2625,0,2.2365,2.2359,2.2389,2.2417,2.244,2.2462,2.248,2.2499,2.2485,2.251,2.2545,2.2565,2.2603,2.2635,2.2661,2.2668,2.2644,2.2642,2.2654,2.2658,2.2659,2.2657,2.2493,2.2638,2.2637,2.2636,2.2635,2.2634,2.2461,2.2494,2.2507,2.254,2.2553,2.2571,2.2601,2.2601,2.2631,2.2661,2.265,2.269,2.2703,2.2736,2.2746,2.2776,2.2755,2.2773,2.2777,2.2781,2.2786,2.2656,2.2781,2.2781,2.278,2.278,2.278,0,2.2589,2.2596,2.2627,2.2653,2.2679,2.2655,2.2674,2.2697,2.2733,2.2747,2.2773,2.2812,2.2843,2.2845,2.2873,2.2897,2.2887,2.2905,2.2902,2.2904,2.2804,2.279,2.2913,2.2913,2.2913,2.2913,2.2913,2.2913,2.2659,2.2712,2.2708,2.2767,2.2774,2.2813,2.2826,2.2841,2.2853,2.2899,2.2924,2.2925,2.2934,2.2963,2.299,2.2989,2.3,2.3022,2.3017,2.2924,2.2911,2.2898,2.2884,2.3025,2.3025,2.3113,2.3114,2.3115]},{"header":{"parameterUnit":"m.s-1","parameterCategory":1,"la1":30.2991,"la2":30.254,"lo1":-89.0895,"lo2":-89.0444,"dy":0.0017,"dx":0.0017,"nx":28,"ny":28,"refTime":"2024-06-28T21:00:00:Z","depth":0,"parameterNumber":3,"parameterNumberName":"V-component_of_WINDS"},"data":[0,0,0,0,0,0,0,0,0,0,0,0,0,0,0,0,0,0,0,0,0,0,0,0,0,0,0,0,0,0,0,0,0,0,0,0,0,0,0,0,0,0,0,0,0,0,0,0,0,0,0,0,0,0,0,0,0,0,5.463,5.4633,0,5.4889,5.4892,5.4895,5.4909,5.4906,5.4903,5.4901,5.5162,5.5171,5.5181,0,0,0,0,0,0,0,0,0,0,0,0,0,5.4142,5.4151,5.463,5.4633,5.4636,5.4888,5.4892,5.4896,5.491,5.4906,5.4903,5.4899,5.5159,5.517,5.5182,0,0,0,0,0,0,0,0,0,0,0,0,0,5.4373,5.4154,5.4629,5.4674,5.468,5.4888,5.4892,5.4896,5.4911,5.4906,5.4902,5.4898,5.5155,5.5169,5.5183,5.5362,0,0,5.5228,5.5234,0,0,0,0,0,0,0,0,5.436,5.4391,5.4664,5.4671,5.4679,5.4862,5.4816,5.5053,5.4912,5.4823,5.4901,5.4895,5.5066,5.5087,5.5145,5.5375,5.5386,5.5229,5.5238,5.5244,5.5248,0,0,0,0,0,0,0,5.4344,5.438,5.4732,5.4668,5.4677,5.4679,5.4707,5.4861,5.4966,5.4831,5.4832,5.4863,5.5069,5.5131,5.5152,5.539,5.5229,5.5242,5.5251,5.5256,5.5776,5.5781,0,0,0,0,0,0,5.432,5.4366,5.4724,5.474,5.4505,5.4692,5.4723,5.4808,5.4964,5.4984,5.4866,5.4863,5.5109,5.5135,5.5161,5.538,5.5244,5.5258,5.5266,5.5771,5.5777,5.5783,0,0,0,0,0,0,5.4309,5.4352,5.4713,5.4554,5.46,5.4705,5.48,5.4815,5.4878,5.4992,5.501,5.4912,5.5106,5.514,5.5312,5.5389,5.5264,5.5278,5.5765,5.5773,5.578,5.5819,0,0,0,0,0,0,5.4295,5.4348,5.4418,5.4555,5.4608,5.4862,5.4805,5.4824,5.4904,5.4901,5.5039,5.5057,5.5105,5.529,5.5326,5.5407,5.5289,5.5759,5.5769,5.5778,5.5811,5.5827,5.584,0,0,0,0,0,5.4278,5.4418,5.4422,5.4465,5.4699,5.4866,5.4897,5.495,5.491,5.4981,5.5053,5.5053,5.5374,5.5308,5.5349,5.5434,5.5754,5.5766,5.5777,5.5805,5.5824,5.584,0,0,0,0,0,0,5.4287,5.4437,5.4443,5.4632,5.4736,5.4869,5.496,5.4969,5.5086,5.5079,5.5139,5.517,5.534,5.5404,5.5327,5.5614,5.5559,5.558,5.5566,5.5586,5.56,5.558,5.5301,0,0,0,0,0,5.4311,5.4436,5.456,5.4715,5.4767,5.4854,5.4929,5.4962,5.5072,5.5115,5.5201,5.5306,5.5431,5.5512,5.5633,5.582,5.5849,5.5899,5.5914,5.5925,5.5941,5.6044,5.6067,5.582,5.582,5.582,0,0,5.4361,5.4459,5.4534,5.4719,5.4804,5.493,5.4891,5.5027,5.5121,5.5136,5.5303,5.5369,5.549,5.567,5.5754,5.5729,5.6016,5.594,5.5948,5.5958,5.6058,5.6081,5.6101,5.5828,5.5826,5.5825,0,0,5.4518,5.4606,5.4744,5.4829,5.4958,5.5015,5.5048,5.5179,5.5224,5.5393,5.5407,5.5518,5.5732,5.5818,5.5889,5.6077,5.608,5.6114,5.619,5.6289,5.6308,5.6326,5.6391,5.6414,5.613,5.613,5.6131,0,5.4565,5.4758,5.4813,5.4949,5.5029,5.5049,5.5188,5.5268,5.5429,5.5483,5.5454,5.5722,5.5805,5.6004,5.605,5.6108,5.6146,5.6099,5.6301,5.6319,5.6336,5.64,5.6424,5.6134,5.6133,5.6133,5.6133,0,5.4808,5.4941,5.5036,5.5193,5.5283,5.542,5.5494,5.5579,5.5603,5.5662,5.5833,5.5933,5.6074,5.6124,5.6149,5.6327,5.6307,5.6289,5.6235,5.6362,5.6422,5.6447,5.6138,5.6137,5.6136,5.6135,0,0,5.4978,5.5163,5.5197,5.5268,5.5411,5.5514,5.565,5.5789,5.586,5.597,5.6085,5.6265,5.6248,5.6329,5.6363,5.645,5.659,5.6421,5.6424,5.6448,5.6791,5.6803,5.683,5.6593,5.6598,5.6602,5.678,0,5.515,5.5396,5.5449,5.5659,5.5782,5.5802,5.592,5.6019,5.6078,5.6189,5.6253,5.6379,5.6349,5.6397,5.6484,5.6555,5.666,5.6543,5.6699,5.6704,5.6667,5.6862,5.6877,5.704,5.6804,5.6808,5.6811,0,5.5385,5.5501,5.5724,5.585,5.5903,5.6009,5.614,5.6246,5.6358,5.6394,5.6484,5.6509,5.6649,5.6588,5.6781,5.67,5.6767,5.6811,5.6819,5.6835,5.6765,5.6883,5.7094,5.7118,5.6849,5.6846,5.6843,0,5.5485,5.5698,5.5858,5.5918,5.6069,5.6142,5.6208,5.6316,5.6396,5.651,5.6562,5.669,5.6759,5.6857,5.6914,5.6865,5.7102,5.7046,5.7135,5.7133,5.7184,5.718,5.7407,5.7228,5.7227,5.7227,5.7226,0,5.5672,5.5807,5.5905,5.6004,5.6155,5.6214,5.6362,5.6427,5.6523,5.6633,5.6657,5.676,5.683,5.6941,5.6987,5.7139,5.717,5.7202,5.7212,5.72,5.7196,5.7244,5.7234,5.7234,5.7232,5.7231,5.723,0,5.581,5.5882,5.6058,5.6186,5.6221,5.6327,5.6436,5.6531,5.6589,5.6729,5.6764,5.6856,5.6988,5.7055,5.722,5.725,5.7421,5.7425,5.7384,5.7388,5.7472,5.7463,5.7739,5.7777,5.7572,5.7574,5.7576,0,5.5924,5.6029,5.6168,5.6245,5.6312,5.6435,5.6516,5.6577,5.6661,5.6795,5.6874,5.7008,5.7119,5.7329,5.7409,5.7534,5.7541,5.7629,5.756,5.7543,5.7541,5.7534,5.7544,5.764,5.7642,5.7644,5.7645,0,5.6119,5.6149,5.6266,5.6396,5.6493,5.6597,5.67,5.6761,5.6838,5.693,5.7066,5.7152,5.732,5.7452,5.7584,5.7649,5.766,5.7666,5.7693,5.7681,5.7653,5.7668,5.7417,5.766,5.7658,5.7657,5.7657,5.7656,5.6248,5.6342,5.6454,5.6584,5.6667,5.6763,5.6859,5.6929,5.7044,5.7187,5.7215,5.7359,5.7467,5.7644,5.7714,5.7826,5.7807,5.7846,5.7856,5.7865,5.7868,5.7635,5.785,5.785,5.785,5.7849,5.7849,0,5.6443,5.6516,5.6635,5.6779,5.688,5.6882,5.6996,5.708,5.7207,5.7307,5.7415,5.757,5.7698,5.7788,5.7917,5.7989,5.7997,5.8021,5.8016,5.8031,5.7879,5.7842,5.8013,5.8013,5.8013,5.8012,5.8012,5.8012,5.6557,5.6715,5.6757,5.6956,5.7028,5.717,5.7235,5.7322,5.7402,5.7575,5.7682,5.774,5.7835,5.7971,5.8088,5.8111,5.8157,5.8181,5.8203,5.8059,5.8042,5.8025,5.7991,5.819,5.8191,5.8346,5.8347,5.8348]}]]